Stations météo

Publicité
New York City, ny, Etats-Unis (2074728): Température de l'air & dewpoint: 20.04.2018 11:00:00 - 26.04.2018 11:00:00 (EDT)New York City, ny, Etats-Unis (2074728): Vitesse du vent: 20.04.2018 11:00:00 - 26.04.2018 11:00:00 (EDT)New York City, ny, Etats-Unis (2074728): Direction du vent: 20.04.2018 11:00:00 - 26.04.2018 11:00:00 (EDT)New York City, ny, Etats-Unis (2074728): reduced air pressure: 20.04.2018 11:00:00 - 26.04.2018 11:00:00 (EDT)New York City, ny, Etats-Unis (2074728): visibility: 20.04.2018 11:00:00 - 26.04.2018 11:00:00 (EDT)New York City, ny, Etats-Unis (2074728): Quantités de précipitations: 20.04.2018 11:00:00 - 26.04.2018 11:00:00 (EDT)
Date & Time tt [°C] td [°C] ff [km/h] ff [knt] dd ppp [hPa] vv [km] rr [mm]
26.04.2018 11:00:00 - - - - - - - -
26.04.2018 10:00:00 13,9 5,6 11 6 - 1006,1 16 -
26.04.2018 09:00:00 13,9 6,1 11 6 - 1005,6 16 -
26.04.2018 08:00:00 13,9 8,9 9 5 - 1005,0 16 -
26.04.2018 07:00:00 13,3 10,0 5 3 - 1004,4 16 -
26.04.2018 06:00:00 13,9 10,6 8 4 WNW 1003,2 16 -
26.04.2018 05:00:00 13,9 11,7 8 4 W 1002,3 16 0,0
26.04.2018 04:00:00 13,9 13,3 0 0 N 1001,8 6 0,0
26.04.2018 03:00:00 13,3 12,8 5 3 WNW 1002,1 4,0 0,0
26.04.2018 02:00:00 13,3 12,8 0 0 N 1002,5 6 0,0
26.04.2018 01:00:00 12,8 12,2 0 0 N 1003,1 1,2 1,5
26.04.2018 00:00:00 13,3 12,2 0 0 N 1003,6 4,8 -
25.04.2018 23:00:00 13,3 12,8 0 0 N 1004,3 2,0 -
25.04.2018 22:00:00 13,3 12,8 0 0 N 1004,9 1,2 -
25.04.2018 21:00:00 13,3 12,8 8 4 SE 1004,3 2,4 -
25.04.2018 20:00:00 13,3 12,8 0 0 N 1004,5 2,4 -
25.04.2018 19:00:00 13,9 12,8 8 4 SSE 1004,4 3,2 -
25.04.2018 18:00:00 14,4 13,3 5 3 E 1004,9 4,0 0,3
25.04.2018 17:00:00 14,4 13,9 9 5 ENE 1005,0 3,2 0,3
25.04.2018 16:00:00 15,0 13,9 8 4 - 1005,9 6 0,0
25.04.2018 15:00:00 15,0 14,4 5 3 - 1006,3 2,4 0,3
25.04.2018 14:00:00 15,6 15,0 9 5 SE 1007,4 2,8 1,5
25.04.2018 13:00:00 15,6 14,4 13 7 SE 1008,3 2,8 0,3
25.04.2018 12:00:00 15,0 13,9 11 6 SE 1009,8 16 0,0
25.04.2018 11:00:00 14,4 13,3 - - - 1010,8 11 0,0
25.04.2018 10:00:00 13,9 12,8 9 5 - 1011,8 16 0,3
25.04.2018 09:00:00 13,3 12,8 5 3 - 1012,5 4,8 2,3
25.04.2018 08:00:00 12,8 12,2 11 6 - 1013,5 2,0 1,5
25.04.2018 07:00:00 12,2 11,7 9 5 - 1014,2 1,2 0,8
25.04.2018 06:00:00 12,2 11,7 9 5 - 1014,5 4,8 0,5
25.04.2018 05:00:00 12,8 11,7 15 8 SSE 1015,5 6 0,3
25.04.2018 04:00:00 11,7 11,1 8 4 - 1016,8 4,8 0,3
25.04.2018 03:00:00 11,7 10,0 8 4 ENE 1017,6 11 0,3
25.04.2018 02:00:00 12,8 11,1 8 4 - 1018,7 15 0,3
25.04.2018 01:00:00 12,8 11,1 0 0 N 1020,1 15 0,3
25.04.2018 00:00:00 12,8 10,6 5 3 - 1021,0 16 0,8
24.04.2018 23:00:00 12,2 8,3 5 3 ENE 1022,0 13 0,3
24.04.2018 22:00:00 13,3 7,2 11 6 - 1023,0 16 0,0
24.04.2018 21:00:00 13,9 5,6 11 6 - 1023,4 16 -
24.04.2018 20:00:00 14,4 3,9 13 7 SE 1023,4 16 -
24.04.2018 19:00:00 15,0 4,4 - - - 1023,6 16 -
24.04.2018 18:00:00 15,6 5,0 8 4 - 1024,3 16 -
24.04.2018 17:00:00 16,7 4,4 11 6 - 1024,6 16 -
24.04.2018 16:00:00 17,2 4,4 - - - 1025,1 16 -
24.04.2018 15:00:00 17,2 3,9 8 4 - 1026,1 16 -
24.04.2018 14:00:00 18,3 1,7 16 9 S 1026,9 16 -
24.04.2018 13:00:00 17,8 1,7 9 5 - 1027,6 16 -
24.04.2018 12:00:00 17,8 2,8 8 4 - 1028,4 16 -
24.04.2018 11:00:00 16,7 1,7 8 4 E 1028,9 16 -
24.04.2018 10:00:00 15,0 2,2 8 4 - 1029,4 16 -
24.04.2018 09:00:00 13,3 3,9 5 3 - 1029,6 16 -
24.04.2018 08:00:00 11,7 3,9 11 6 SSE 1029,7 16 -
24.04.2018 07:00:00 8,9 6,1 5 3 - 1029,3 15 -
24.04.2018 06:00:00 8,3 5,6 0 0 N 1029,5 13 -
24.04.2018 05:00:00 8,9 5,6 0 0 N 1029,2 16 -
24.04.2018 04:00:00 8,9 5,0 0 0 N 1029,4 16 -
24.04.2018 03:00:00 8,9 5,0 5 3 NE 1029,3 16 -
24.04.2018 02:00:00 11,1 0,0 5 3 - 1029,7 16 -
24.04.2018 01:00:00 10,0 3,9 5 3 NE 1030,0 16 -
24.04.2018 00:00:00 10,6 1,1 0 0 N 1030,2 16 -
23.04.2018 23:00:00 10,6 2,8 8 4 SSW 1030,5 16 -
23.04.2018 22:00:00 10,6 3,9 8 4 - 1030,9 16 -
23.04.2018 21:00:00 11,1 2,8 8 4 SSE 1030,6 16 -
23.04.2018 20:00:00 12,2 1,1 8 4 S 1030,5 16 -
23.04.2018 19:00:00 12,8 1,7 11 6 - 1030,2 16 -
23.04.2018 18:00:00 13,3 1,1 - - - 1030,3 16 -
23.04.2018 17:00:00 15,0 0,0 15 8 S 1030,6 16 -
23.04.2018 16:00:00 16,7 -2,2 15 8 S 1030,5 16 -
23.04.2018 15:00:00 18,3 -2,8 8 4 - 1030,6 16 -
23.04.2018 14:00:00 19,4 -3,9 11 6 - 1030,8 16 -
23.04.2018 13:00:00 17,8 -6,7 9 5 NE 1031,4 16 -
23.04.2018 12:00:00 16,7 -3,9 5 3 - 1032,0 16 -
23.04.2018 11:00:00 15,0 -2,8 5 3 - 1032,4 16 -
23.04.2018 10:00:00 13,3 -3,9 9 5 E 1032,3 16 -
23.04.2018 09:00:00 12,2 -5,6 16 9 NE 1031,8 16 -
23.04.2018 08:00:00 10,6 -3,9 8 4 ENE 1031,6 16 -
23.04.2018 07:00:00 8,9 -0,6 16 9 NE 1030,9 16 -
23.04.2018 06:00:00 7,8 -1,1 0 0 N 1030,6 16 -
23.04.2018 05:00:00 8,3 -1,1 0 0 N 1030,2 16 -
23.04.2018 04:00:00 8,9 -2,2 0 0 N 1029,7 16 -
23.04.2018 03:00:00 10,0 -2,8 0 0 N 1029,3 16 -
23.04.2018 02:00:00 9,4 -1,1 0 0 N 1029,2 16 -
23.04.2018 01:00:00 10,6 -2,8 0 0 N 1029,3 16 -
23.04.2018 00:00:00 10,6 -1,7 0 0 N 1029,0 16 -
22.04.2018 23:00:00 11,1 -2,8 0 0 N 1028,8 16 -
22.04.2018 22:00:00 11,7 -3,3 5 3 S 1028,5 16 -
22.04.2018 21:00:00 11,7 -4,4 5 3 - 1028,2 16 -
22.04.2018 20:00:00 12,8 -6,1 9 5 S 1027,4 16 -
22.04.2018 19:00:00 13,3 -5,0 13 7 SSW 1027,0 16 -
22.04.2018 18:00:00 14,4 -6,1 11 6 - 1026,8 16 -
22.04.2018 17:00:00 15,6 -6,1 15 8 S 1026,8 16 -
22.04.2018 16:00:00 18,3 -11,1 9 5 WSW 1026,7 16 -
22.04.2018 15:00:00 17,8 -11,1 5 3 - 1027,3 16 -
22.04.2018 14:00:00 17,2 -10,6 0 0 N 1028,0 16 -
22.04.2018 13:00:00 17,2 -10,6 8 4 - 1028,3 16 -
22.04.2018 12:00:00 16,7 -8,3 9 5 - 1029,0 16 -
22.04.2018 11:00:00 13,9 -7,2 5 3 - 1029,7 16 -
22.04.2018 10:00:00 12,2 -6,7 5 3 - 1029,8 16 -
22.04.2018 09:00:00 10,6 -7,8 9 5 WNW 1029,9 16 -
22.04.2018 08:00:00 8,9 -8,3 5 3 NW 1029,7 16 -
22.04.2018 07:00:00 7,8 -8,9 5 3 W 1029,5 16 -
22.04.2018 06:00:00 6,7 -8,3 0 0 N 1028,7 16 -
22.04.2018 05:00:00 7,8 -7,8 5 3 - 1028,6 16 -
22.04.2018 04:00:00 8,3 -7,8 8 4 - 1028,8 16 -
22.04.2018 03:00:00 8,9 -7,8 16 9 NNW 1028,4 16 -
22.04.2018 02:00:00 10,0 -7,2 9 5 - 1028,2 16 -
22.04.2018 01:00:00 11,1 -7,2 5 3 - 1028,1 16 -
22.04.2018 00:00:00 11,7 -6,7 11 6 - 1027,7 16 -
21.04.2018 23:00:00 12,2 -7,2 5 3 - 1027,4 16 -
21.04.2018 22:00:00 13,3 -7,8 8 4 - 1027,1 16 -
21.04.2018 21:00:00 13,9 -8,3 5 3 - 1026,3 16 -
21.04.2018 20:00:00 15,0 -8,3 11 6 - 1025,7 16 -
21.04.2018 19:00:00 15,6 -7,8 11 6 WNW 1024,8 16 -
21.04.2018 18:00:00 16,1 -8,3 9 5 WNW 1024,5 16 -
21.04.2018 17:00:00 16,1 -6,7 11 6 - 1024,7 16 -
21.04.2018 16:00:00 16,1 -6,1 13 7 WNW 1025,0 16 -
21.04.2018 15:00:00 15,0 -6,7 15 8 NW 1025,7 16 -
21.04.2018 14:00:00 13,9 -6,7 11 6 - 1026,8 16 -
21.04.2018 13:00:00 13,3 -6,1 11 6 NW 1027,7 16 -
21.04.2018 12:00:00 12,2 -6,1 15 8 W 1028,5 16 -
21.04.2018 11:00:00 11,1 -5,0 13 7 NW 1029,5 16 -
21.04.2018 10:00:00 9,4 -3,9 11 6 - 1029,5 16 -
21.04.2018 09:00:00 6,7 -3,9 9 5 WNW 1029,7 16 -
21.04.2018 08:00:00 5,0 -3,9 15 8 WNW 1029,7 16 -
21.04.2018 07:00:00 3,9 -3,9 8 4 WNW 1029,5 16 -
21.04.2018 06:00:00 3,9 -3,9 0 0 N 1029,0 16 -
21.04.2018 05:00:00 3,9 -3,9 5 3 WNW 1028,8 16 -
21.04.2018 04:00:00 4,4 -4,4 8 4 - 1028,7 16 -
21.04.2018 03:00:00 4,4 -4,4 9 5 WNW 1028,3 16 -
21.04.2018 02:00:00 4,4 -4,4 5 3 - 1028,3 16 -
21.04.2018 01:00:00 4,4 -5,0 11 6 - 1028,6 16 -
21.04.2018 00:00:00 5,0 -5,0 11 6 WNW 1028,3 16 -
20.04.2018 23:00:00 5,6 -5,0 0 0 N 1028,0 16 -
20.04.2018 22:00:00 6,1 -5,0 15 8 N 1027,5 16 -
20.04.2018 21:00:00 6,1 -5,6 8 4 - 1027,0 16 -
20.04.2018 20:00:00 6,7 -5,6 13 7 NW 1026,2 16 -
20.04.2018 19:00:00 7,2 -5,0 16 9 WNW 1025,0 16 -
20.04.2018 18:00:00 8,3 -5,0 15 8 WNW 1024,1 16 -
20.04.2018 17:00:00 10,0 -5,0 22 12 NW 1023,0 16 -
20.04.2018 16:00:00 9,4 -5,6 16 9 NW 1022,3 16 -
20.04.2018 15:00:00 9,4 -5,0 22 12 WNW 1022,2 16 -
20.04.2018 14:00:00 9,4 -5,0 11 6 - 1022,1 16 -
20.04.2018 13:00:00 8,9 -5,0 9 5 - 1021,9 16 -
20.04.2018 12:00:00 7,8 -4,4 13 7 NW 1021,7 16 -
20.04.2018 11:00:00 5,6 -5,6 8 4 - 1021,5 16 -

tt = Température de l'air
td = dewpoint
ff = Vitesse du vent
dd = Direction du vent
ppp = reduced air pressure
vv = visibility
rr = Quantités de précipitations

stations d'obs. à proximité